Ahmadabad, India

7:06 PM IST on February 24, 2017 (GMT +0530)
Ahmedabad

Weather History for VAAH - January, 2013

Change the Weather History Date:

Tuesday, January 1, 2013

  Actual Average Record
Temperature  
Mean Temperature 66 °F -  
Max Temperature 80 °F 78 °F 89 °F (2016)
Min Temperature 53 °F 53 °F 48 °F (2003)
Cooling Degree Days 2    
Growing Degree Days 16 (Base 50)    
Moisture  
Dew Point 51 °F    
Average Humidity 62    
Maximum Humidity 94    
Minimum Humidity 35    
Precipitation  
Precipitation 0.00 in 0.00 in - ()
Sea Level Pressure  
Sea Level Pressure 29.87 in    
Wind  
Wind Speed 3 mph ()    
Max Wind Speed 7 mph    
Max Gust Speed -    
Visibility 2.1 miles    
Events      
Averages and records for this station are not official NWS values.
T = Trace of Precipitation, MM = Missing Value Source: Averaged Metar Reports

Daily Weather History Graph

Daily Weather History Graph

Search for Another Location

Airport or City:

Trip Planner

Search our weather history database for the weather conditions in past years. The results will help you decide how hot, cold, wet, or windy it might be!

Date:

Astronomy

Jan. 01, 2013 Rise Set
Actual Time 7:20 AM IST 6:05 PM IST
Civil Twilight 6:56 AM IST 6:30 PM IST
Nautical Twilight 6:28 AM IST 6:58 PM IST
Astronomical Twilight 6:00 AM IST 7:25 PM IST
Moon 9:40 PM IST (1/1) 9:44 AM IST (1/1)
Length of Visible Light 11h 34m
Length of Day
10h 44m
Waning Gibbous, 86% of the Moon is Illuminated
Jan 1
Waning Gibbous
Jan 5
Last Quarter
Jan 12
New
Jan 19
First Quarter
Jan 27
Full

Hourly Weather History & Observations

Time (IST) Temp. Heat Index Dew Point Humidity Pressure Visibility Wind Dir Wind Speed Gust Speed Precip Events Conditions
12:10 AM 60.8 °F - 55.4 °F 82% 29.86 in 2.5 mi Variable 3.5 mph - N/A   Haze
12:40 AM 60.8 °F - 55.4 °F 82% 29.86 in 2.5 mi NNE 3.5 mph - N/A   Haze
1:10 AM 59.0 °F - 53.6 °F 82% 29.86 in 2.5 mi NNE 4.6 mph - N/A   Haze
1:40 AM 59.0 °F - 53.6 °F 82% 29.86 in 2.2 mi Calm Calm - N/A   Haze
2:30 AM 58 °F - 55 °F 85% 29.86 in 1 mi Calm Calm - -   Mist
2:40 AM 57.2 °F - 53.6 °F 88% 29.83 in 1.9 mi Variable 3.5 mph - N/A   Mist
3:10 AM 57.2 °F - 53.6 °F 88% 29.83 in 1.9 mi Variable 3.5 mph - N/A   Mist
3:40 AM 57.2 °F - 53.6 °F 88% 29.83 in 1.9 mi North 3.5 mph - N/A   Mist
4:10 AM 57.2 °F - 53.6 °F 88% 29.83 in 1.9 mi Calm Calm - N/A   Mist
4:40 AM 57.2 °F - 51.8 °F 82% 29.83 in 1.9 mi Calm Calm - N/A   Mist
5:10 AM 55.4 °F - 51.8 °F 88% 29.83 in 1.9 mi Calm Calm - N/A   Mist
5:40 AM 55.4 °F - 51.8 °F 88% 29.86 in 1.9 mi Calm Calm - N/A   Mist
6:40 AM 55.4 °F - 51.8 °F 88% 29.86 in 1.9 mi Calm Calm - N/A   Mist
7:10 AM 53.6 °F - 51.8 °F 94% 29.89 in 1.2 mi Calm Calm - N/A   Mist
7:40 AM 53.6 °F - 51.8 °F 94% 29.89 in 1.1 mi Variable 3.5 mph - N/A   Mist
8:10 AM 55.4 °F - 53.6 °F 94% 29.92 in 1.1 mi NNE 5.8 mph - N/A   Mist
8:30 AM 58 °F - 53 °F 79% 29.93 in 1 mi Calm Calm - -   Mist
8:40 AM 55.4 °F - 53.6 °F 94% 29.92 in 1.1 mi NNE 5.8 mph - N/A   Mist
9:10 AM 59.0 °F - 53.6 °F 82% 29.95 in 1.1 mi North 5.8 mph - N/A   Mist
11:30 AM 72 °F - 56 °F 47% 29.95 in 2 mi NE 4.6 mph - -   Haze
11:40 AM 73.4 °F - 53.6 °F 50% 29.92 in 2.2 mi NNE 4.6 mph - N/A   Haze
12:10 PM 77.0 °F - 55.4 °F 47% 29.92 in 2.2 mi East 4.6 mph - N/A   Haze
1:10 PM 78.8 °F - 53.6 °F 42% 29.86 in 2.5 mi North 5.8 mph - N/A   Smoke
1:40 PM 78.8 °F - 53.6 °F 42% 29.86 in 2.5 mi North 6.9 mph - N/A   Smoke
2:10 PM 80.6 °F 80.3 °F 53.6 °F 39% 29.83 in 2.5 mi North 5.8 mph - N/A   Smoke
2:30 PM 80 °F - 58 °F 36% 29.87 in 2 mi NW 4.6 mph - -   Smoke
2:40 PM 80.6 °F - 51.8 °F 37% 29.83 in 2.5 mi NW 5.8 mph - N/A   Smoke
3:10 PM 80.6 °F 80.3 °F 53.6 °F 39% 29.83 in 2.5 mi NW 5.8 mph - N/A   Smoke
4:40 PM 80.6 °F - 51.8 °F 37% 29.83 in 2.5 mi NNW 6.9 mph - N/A   Smoke
5:10 PM 78.8 °F - 51.8 °F 39% 29.83 in 2.5 mi NNW 4.6 mph - N/A   Smoke
5:30 PM 78 °F - 56 °F 35% 29.86 in 2 mi NW 4.6 mph - -   Smoke
5:40 PM 77.0 °F - 51.8 °F 41% 29.83 in 2.5 mi NW 3.5 mph - N/A   Smoke
6:10 PM 75.2 °F - 50.0 °F 41% 29.83 in 2.5 mi WNW 3.5 mph - N/A   Smoke
6:40 PM 73.4 °F - 48.2 °F 41% 29.86 in 2.5 mi WNW 3.5 mph - N/A   Smoke
7:10 PM 69.8 °F - 46.4 °F 43% 29.86 in 2.5 mi West 3.5 mph - N/A   Smoke
7:40 PM 68.0 °F - 44.6 °F 43% 29.86 in 2.5 mi West 4.6 mph - N/A   Smoke
8:10 PM 66.2 °F - 50.0 °F 56% 29.89 in 2.5 mi NW 3.5 mph - N/A   Smoke
8:30 PM 63 °F - 50 °F 53% 29.91 in 2 mi WNW 2.3 mph - -  
8:40 PM 64.4 °F - 51.8 °F 64% 29.89 in 2.5 mi NNW 3.5 mph - N/A   Haze
9:10 PM 64.4 °F - 46.4 °F 52% 29.89 in 2.5 mi NNW 3.5 mph - N/A   Smoke
9:40 PM 62.6 °F - 42.8 °F 48% 29.89 in 2.5 mi NNW 3.5 mph - N/A   Smoke
10:10 PM 60.8 °F - 41.0 °F 48% 29.92 in 2.5 mi NNE 3.5 mph - N/A   Smoke
10:40 PM 59.0 °F - 41.0 °F 51% 29.92 in 2.5 mi North 3.5 mph - N/A   Smoke
11:10 PM 57.2 °F - 41.0 °F 55% 29.92 in 2.5 mi North 3.5 mph - N/A   Smoke
11:30 PM 62 °F - 43 °F 38% 29.93 in 2 mi WNW 4.6 mph - -  
11:40 PM 59.0 °F - 39.2 °F 48% 29.92 in 2.5 mi North 4.6 mph - N/A   Smoke